Wind_Speed
5 5 5 5 5 6 4 4 2 6 7 7 7 9 8 7 7 6 6 5 5 5 5 4 4 3 3 4 5 6 6 6 7 6 6 6 6 6 6 6 6 6 5 5 4 4 4 3 3
7 7 6 6 8 11 9 2 2 7 9 8 8 9 8 7 7 7 6 5 6 6 5 5 4 5 5 6 6 7 8 8 8 8 8 9 9 9 9 9 9 8 8 7 7 6 6 5 5
9 9 9 8 8 14 14 4 6 8 11 11 11 10 9 8 6 6 6 6 6 6 5 5 6 6 6 7 8 8 9 10 10 10 11 11 11 11 11 11 11 10 10 9 9 8 8 8 8
12 12 11 11 9 14 15 12 10 11 13 12 13 11 9 8 7 7 6 5 6 6 6 6 6 7 7 8 9 10 11 11 12 12 13 13 13 13 13 13 12 12 12 11 11 10 10 9 9
14 14 13 12 13 18 16 15 14 15 16 14 13 12 8 7 7 6 6 6 6 7 7 6 7 7 8 10 11 12 13 13 14 14 14 14 15 15 15 15 14 14 13 13 12 12 12 11 11
17 16 14 12 17 22 18 16 16 20 18 15 14 14 11 8 7 6 6 6 6 6 7 7 8 9 10 12 13 13 14 15 15 15 16 16 16 16 16 16 16 16 15 15 14 14 14 14 13
18 18 16 14 17 22 20 20 20 23 20 17 15 16 14 8 7 7 7 7 6 7 8 9 10 11 12 13 14 15 16 16 16 17 18 18 18 18 18 18 18 18 18 17 17 16 16 15 15
18 19 17 13 15 21 23 23 22 24 21 19 18 20 16 8 7 8 8 9 8 9 9 10 12 12 13 14 15 16 17 18 19 19 20 20 21 20 20 20 21 21 20 19 19 19 18 17 17
16 17 14 12 16 22 25 24 23 24 24 22 22 22 18 12 9 9 10 10 10 11 11 12 13 15 15 16 17 18 19 20 21 22 22 22 23 23 23 23 23 23 23 22 22 21 21 20 19
13 14 14 18 24 25 25 24 21 21 24 25 22 19 16 13 12 11 11 12 13 13 14 14 16 17 18 19 20 21 22 23 23 24 25 25 25 24 24 24 25 26 26 25 25 24 23 22 22
12 15 18 21 24 27 27 23 20 23 25 26 20 13 12 13 14 13 13 13 15 16 17 17 18 19 20 20 21 22 23 24 25 24 24 26 26 25 25 24 23 24 25 25 26 27 26 25 24
11 11 15 20 23 25 25 24 24 26 27 23 18 14 12 15 15 15 14 15 16 17 18 18 19 20 20 21 22 23 24 24 24 24 25 25 25 24 24 23 23 23 23 24 25 27 28 26 24
10 10 11 14 16 18 20 22 25 26 23 21 17 13 14 15 16 17 16 15 17 18 19 19 19 19 20 21 22 23 23 23 22 22 22 21 22 22 21 22 22 22 23 23 23 24 25 23 23
6 8 10 11 11 13 15 19 24 22 18 16 16 15 16 18 17 17 16 17 18 18 18 19 18 18 19 21 21 20 20 20 20 21 20 21 21 20 20 21 22 22 23 23 22 23 23 23 23
9 9 10 10 10 12 13 18 22 17 14 15 18 18 17 17 17 16 17 18 18 18 19 19 19 18 18 18 18 17 18 17 19 19 18 19 20 21 21 21 22 23 23 23 22 23 23 24 25
11 13 13 10 10 11 14 20 19 15 13 14 16 17 16 18 18 17 17 17 18 18 18 17 16 16 16 16 16 16 17 18 18 18 18 20 21 21 22 23 23 23 23 23 23 23 24 24 24
17 17 18 13 11 11 15 20 15 10 10 13 15 16 16 16 17 17 16 17 17 16 16 15 14 14 14 15 16 16 16 16 17 18 19 20 21 22 24 23 23 23 22 22 23 23 24 24 25
17 18 18 15 12 12 15 18 13 6 7 13 16 16 16 16 16 16 16 15 16 15 14 14 13 13 13 14 15 15 16 16 17 19 20 21 21 22 23 23 22 23 23 23 23 24 24 25 25
11 14 15 14 11 12 13 16 16 10 7 13 14 15 15 15 14 14 14 14 15 13 13 13 13 13 14 14 15 15 16 17 18 19 20 21 21 21 22 22 21 22 22 23 23 24 24 25 25
10 11 13 13 12 11 12 12 12 9 7 9 10 9 10 12 12 13 13 13 12 12 12 11 11 13 14 14 15 15 16 17 17 19 19 20 20 20 20 21 21 21 22 22 23 24 24 25 25
12 11 10 11 12 11 11 11 12 11 8 6 6 6 7 8 8 8 9 9 9 10 9 10 10 11 12 14 15 15 17 18 18 19 19 19 20 20 20 21 22 22 22 22 23 24 24 25 26
12 11 9 8 10 11 12 13 11 11 7 5 3 3 4 5 4 5 6 6 7 8 8 8 10 11 13 14 15 17 17 18 19 19 19 20 20 20 21 21 22 22 22 23 23 24 25 25 26
10 8 6 7 10 10 9 12 12 12 7 4 2 0 1 2 2 3 3 4 5 6 7 9 10 12 13 15 16 18 19 19 20 20 20 21 21 21 22 22 22 23 23 24 24 25 25 26 27
8 8 9 10 10 6 9 11 12 13 9 5 4 2 1 2 2 3 4 5 6 7 9 10 11 13 15 16 18 19 20 20 21 21 21 22 22 22 22 23 24 24 24 25 25 26 27 27 28
9 9 14 16 15 10 10 9 12 13 11 8 5 4 2 2 2 3 5 6 8 10 11 12 13 14 16 18 19 19 20 20 21 22 22 23 23 23 23 24 25 25 26 27 27 28 28 29 30
9 8 11 13 14 11 7 9 12 11 11 8 6 4 4 4 4 5 7 9 10 12 13 14 15 16 17 18 19 20 20 20 21 22 23 23 24 25 25 26 26 27 28 28 29 29 30 31 32
9 7 7 8 11 10 4 8 10 10 11 10 8 7 6 7 7 8 9 11 12 14 14 15 16 17 18 19 20 20 21 22 22 23 24 24 25 26 27 28 28 29 29 30 31 32 32 33 33
9 8 7 5 7 10 8 9 12 14 15 13 11 10 10 10 10 11 12 13 14 15 15 16 17 18 19 20 20 20 21 22 23 24 25 26 27 28 29 30 30 31 32 32 33 34 34 35 35
11 8 8 8 7 10 13 10 12 16 18 17 14 13 12 12 13 13 14 15 15 15 15 16 17 19 20 20 21 21 22 22 23 24 26 27 28 29 30 31 32 33 34 34 35 36 36 36 36
10 10 10 10 9 8 10 14 15 16 18 19 18 16 15 15 15 15 15 16 16 16 16 17 18 19 19 20 21 22 22 23 24 26 27 28 29 30 31 33 34 35 36 36 37 37 37 37 37
Wind_Direction
344 339 330 321 305 287 225 144 233 271 278 287 280 280 288 286 281 287 293 291 287 280 271 264 263 267 278 287 291 290 287 287 286 287 286 286 286 287 287 285 285 286 287 289 297 305 312 321 330
315 308 301 297 292 297 284 191 245 283 288 286 281 282 290 285 281 277 282 285 285 281 278 270 274 280 286 289 291 292 289 289 288 286 286 287 286 285 285 283 282 282 283 284 286 290 292 294 298
294 289 287 286 291 298 305 322 297 288 284 281 277 278 282 288 288 280 280 279 280 280 279 280 280 285 289 288 289 291 290 288 287 287 286 285 283 282 281 281 281 280 281 282 282 284 286 286 287
283 280 276 274 277 272 277 282 278 275 270 269 268 268 273 278 284 287 287 280 278 281 283 284 286 290 293 292 292 293 291 288 286 286 286 285 284 282 281 281 281 280 280 281 280 279 280 282 282
276 274 272 274 276 267 262 268 271 266 263 258 262 264 259 263 278 286 289 285 285 288 290 288 290 293 294 294 294 293 292 290 289 288 287 286 285 283 281 280 279 279 279 278 278 277 277 278 279
270 266 265 271 279 275 271 265 262 261 258 255 258 261 264 266 276 287 289 290 297 300 301 296 292 294 296 296 297 296 293 291 291 289 287 286 284 284 283 282 279 279 279 276 274 274 275 276 277
266 261 255 255 270 279 275 266 261 262 258 257 260 264 264 254 268 284 291 294 302 306 306 302 300 299 298 297 296 296 295 293 294 291 286 284 282 282 281 280 277 277 277 275 273 272 272 273 274
265 260 256 253 265 270 267 269 263 260 258 258 264 265 261 251 268 286 294 297 300 304 306 304 304 302 299 297 295 295 296 294 293 292 288 281 279 278 276 275 274 274 273 271 271 270 270 271 272
264 255 254 249 252 254 258 259 258 260 260 259 256 256 259 269 278 284 290 298 303 305 306 305 304 299 296 295 293 292 291 291 290 288 287 283 278 276 275 273 270 272 270 267 266 266 267 269 270
263 251 242 238 237 242 253 259 257 255 254 249 248 246 254 266 276 279 286 295 301 305 305 304 303 299 294 292 290 289 288 286 286 286 283 281 278 275 275 276 275 270 269 268 265 262 264 265 266
273 250 238 240 241 244 251 260 262 258 249 244 245 235 254 268 277 281 286 293 300 301 303 303 303 299 295 292 291 288 288 287 286 287 284 283 281 280 279 277 278 275 270 269 267 262 261 262 262
302 277 259 255 253 251 252 255 257 255 252 253 248 245 255 270 274 276 279 291 300 302 302 301 299 298 296 294 291 289 288 288 285 284 286 284 283 283 281 280 281 281 276 274 272 266 263 265 265
315 307 289 279 271 267 257 252 252 250 254 259 265 261 260 264 271 274 281 294 298 299 300 300 300 298 297 294 294 292 288 288 285 287 288 284 286 288 285 282 284 285 283 281 279 273 268 268 270
323 293 288 286 278 268 265 255 254 251 252 256 261 264 263 264 272 276 284 292 295 296 296 298 298 296 297 296 295 291 289 288 293 293 291 290 291 292 291 289 288 288 285 284 282 277 271 270 271
337 310 295 288 293 277 269 256 253 254 247 252 258 260 259 266 269 277 286 290 293 295 296 296 296 294 296 299 299 297 293 292 292 295 295 293 294 293 292 293 292 290 287 285 282 279 275 273 271
332 317 309 310 314 299 286 272 261 256 245 250 255 257 259 265 267 274 282 285 291 296 295 296 298 296 297 300 301 301 298 298 297 299 298 295 296 297 296 294 292 290 289 287 284 282 279 275 273
339 327 326 328 334 316 300 294 286 259 250 259 261 258 258 263 267 271 276 281 288 292 297 299 299 301 301 302 304 305 305 306 306 305 304 300 298 297 296 294 293 290 289 288 285 282 278 275 274
331 324 325 327 325 322 312 309 312 292 260 267 262 261 258 260 266 270 274 279 285 289 296 299 299 302 304 305 306 308 307 308 309 308 306 305 303 301 298 297 295 292 290 287 284 282 279 276 275
308 300 306 313 323 328 316 318 323 309 285 272 261 254 255 261 265 267 271 278 283 288 294 292 295 302 304 306 308 308 307 308 309 309 308 306 305 302 299 299 296 294 292 289 286 283 281 280 279
307 303 310 318 328 328 326 328 340 331 311 284 271 260 254 255 256 264 268 275 283 288 289 290 294 299 303 309 311 310 312 313 314 313 312 310 308 306 303 301 300 297 294 291 289 286 284 281 280
313 312 316 319 328 331 334 343 340 340 334 302 276 259 259 251 258 255 262 273 280 289 293 294 305 310 313 316 317 318 319 320 319 318 316 314 313 311 310 308 305 302 298 294 291 288 286 284 282
311 318 320 317 315 319 344 350 350 357 5 358 311 274 261 256 255 252 263 272 285 292 298 306 313 318 321 323 323 324 324 324 323 321 319 318 317 315 313 311 308 305 302 298 294 290 288 286 284
317 319 317 298 291 309 340 349 356 1 9 21 8 353 266 252 262 272 283 294 310 313 315 318 320 324 327 328 329 328 327 325 324 322 321 320 319 318 316 314 311 308 305 301 298 295 292 290 287
318 318 314 303 291 316 355 352 354 1 6 4 353 355 329 294 292 293 310 317 324 326 326 327 328 330 332 331 330 328 327 326 326 324 323 322 321 319 317 314 313 310 308 305 302 299 296 294 291
322 323 323 340 356 2 1 350 352 0 7 7 352 343 330 310 305 306 318 324 328 329 331 333 334 333 333 332 330 329 328 327 326 325 324 323 321 319 318 316 314 312 309 306 303 301 299 296 294
313 320 324 335 336 332 344 337 343 349 354 349 340 333 322 317 319 320 325 329 330 332 334 335 335 333 332 332 330 330 328 327 326 325 324 323 321 320 319 317 316 313 311 308 305 303 300 297 295
292 284 300 311 315 309 313 323 325 340 341 336 330 326 322 320 322 325 329 331 332 333 334 334 333 332 332 331 331 330 329 328 327 326 325 323 321 320 319 318 316 314 312 310 307 304 301 298 295
293 285 279 280 315 321 308 295 307 332 334 331 324 318 318 318 320 324 328 330 330 330 330 330 330 330 329 329 329 329 328 327 326 326 324 322 321 321 320 319 318 316 313 311 308 306 303 299 296
292 298 285 270 256 282 305 313 316 320 323 324 321 319 317 318 319 321 324 324 324 325 326 326 327 328 328 328 327 327 326 326 325 324 323 322 322 322 321 320 319 318 316 313 310 307 305 302 298
251 268 276 281 274 277 293 296 290 304 312 317 319 317 317 317 316 317 319 319 318 320 321 323 324 324 325 325 324 324 324 324 324 324 324 324 323 323 323 323 322 320 318 316 313 310 307 304 300
Height
5917 5917 5917 5916 5916 5914 5909 5907 5911 5912 5910 5910 5909 5907 5907 5908 5907 5909 5907 5907 5908 5908 5908 5909 5909 5910 5910 5910 5911 5911 5911 5911 5911 5910 5910 5910 5910 5910 5909 5909 5908 5908 5908 5907 5907 5906 5906 5906 5905
5916 5916 5916 5916 5914 5911 5904 5903 5907 5910 5909 5909 5907 5907 5907 5907 5907 5907 5906 5907 5907 5907 5907 5908 5908 5909 5909 5910 5910 5910 5910 5910 5910 5910 5910 5910 5909 5909 5909 5908 5908 5908 5907 5907 5907 5906 5906 5905 5905
5915 5914 5915 5915 5913 5910 5904 5904 5907 5909 5908 5907 5906 5906 5906 5906 5906 5906 5906 5906 5906 5906 5906 5907 5907 5908 5908 5908 5909 5909 5909 5909 5909 5909 5909 5909 5909 5908 5908 5907 5907 5907 5906 5906 5906 5906 5905 5905 5905
5913 5913 5913 5914 5912 5911 5907 5906 5906 5908 5905 5904 5902 5903 5903 5903 5905 5905 5905 5905 5905 5905 5905 5906 5906 5907 5907 5907 5908 5908 5908 5908 5908 5908 5908 5907 5907 5907 5906 5906 5906 5905 5905 5905 5905 5905 5904 5904 5904
5910 5911 5911 5910 5910 5907 5905 5904 5905 5906 5903 5900 5898 5899 5899 5901 5903 5903 5903 5903 5904 5904 5904 5904 5905 5905 5906 5906 5906 5906 5906 5906 5906 5906 5906 5905 5905 5905 5904 5904 5904 5904 5903 5903 5903 5903 5903 5903 5903
5907 5908 5908 5908 5908 5904 5901 5900 5902 5902 5899 5895 5895 5896 5897 5899 5901 5901 5901 5902 5902 5903 5903 5903 5904 5904 5904 5904 5904 5904 5904 5904 5904 5904 5904 5903 5903 5903 5902 5902 5902 5902 5901 5901 5901 5901 5901 5901 5901
5903 5903 5904 5906 5906 5904 5900 5897 5898 5897 5894 5893 5893 5894 5895 5894 5897 5899 5899 5900 5901 5901 5901 5902 5902 5902 5902 5902 5902 5902 5902 5902 5902 5901 5901 5900 5900 5900 5900 5900 5899 5899 5899 5899 5898 5898 5898 5898 5898
5898 5900 5901 5903 5905 5903 5898 5894 5894 5893 5891 5891 5892 5891 5891 5889 5894 5896 5897 5898 5898 5899 5900 5900 5900 5900 5900 5900 5900 5900 5900 5899 5899 5898 5897 5897 5897 5897 5897 5896 5896 5896 5896 5895 5895 5895 5895 5895 5896
5894 5896 5897 5901 5901 5898 5893 5890 5890 5889 5888 5887 5886 5886 5888 5890 5893 5894 5895 5895 5896 5896 5897 5898 5898 5898 5898 5898 5897 5897 5896 5896 5895 5895 5894 5893 5893 5893 5892 5892 5891 5892 5891 5891 5892 5892 5892 5892 5892
5890 5891 5894 5894 5892 5890 5888 5885 5885 5884 5884 5882 5879 5880 5885 5887 5891 5892 5893 5894 5894 5894 5894 5895 5895 5895 5895 5895 5894 5893 5893 5892 5891 5890 5889 5889 5888 5888 5887 5886 5886 5886 5886 5887 5887 5887 5887 5888 5888
5886 5887 5887 5886 5886 5885 5884 5882 5881 5879 5876 5873 5871 5875 5881 5886 5888 5889 5891 5891 5892 5891 5891 5891 5892 5891 5891 5890 5890 5889 5888 5888 5886 5885 5884 5884 5883 5883 5883 5882 5881 5880 5880 5881 5881 5881 5882 5883 5884
5883 5882 5882 5881 5880 5880 5880 5879 5878 5874 5869 5867 5869 5877 5880 5883 5885 5886 5887 5888 5889 5889 5888 5889 5888 5887 5887 5886 5885 5884 5884 5882 5881 5881 5880 5879 5879 5878 5878 5877 5877 5876 5876 5875 5875 5875 5876 5878 5878
5881 5880 5879 5877 5876 5876 5876 5875 5871 5867 5865 5867 5873 5875 5877 5879 5881 5882 5882 5884 5886 5886 5885 5885 5885 5884 5883 5882 5881 5879 5879 5877 5875 5876 5874 5874 5874 5873 5872 5872 5872 5871 5870 5870 5869 5870 5871 5872 5872
5879 5877 5876 5874 5872 5871 5871 5870 5867 5861 5863 5869 5871 5873 5872 5876 5877 5878 5880 5881 5882 5882 5882 5882 5881 5880 5879 5878 5876 5875 5874 5873 5872 5872 5870 5869 5869 5868 5868 5867 5867 5866 5865 5864 5864 5864 5865 5866 5867
5877 5874 5872 5871 5869 5868 5867 5863 5860 5857 5860 5865 5868 5870 5871 5873 5875 5874 5876 5877 5878 5879 5879 5878 5877 5876 5875 5874 5873 5871 5870 5869 5869 5868 5867 5866 5865 5865 5864 5863 5862 5861 5860 5859 5859 5859 5859 5861 5862
5874 5872 5869 5868 5866 5865 5865 5861 5857 5856 5859 5861 5864 5867 5868 5871 5872 5873 5873 5874 5875 5876 5875 5874 5874 5873 5872 5871 5870 5868 5867 5866 5865 5864 5864 5863 5862 5860 5859 5858 5857 5856 5855 5855 5854 5854 5854 5855 5856
5874 5871 5869 5867 5867 5865 5862 5857 5854 5854 5857 5859 5861 5862 5864 5867 5868 5869 5871 5871 5872 5872 5872 5871 5871 5870 5869 5868 5867 5866 5864 5863 5862 5861 5860 5859 5858 5856 5855 5854 5852 5851 5850 5850 5849 5850 5849 5850 5850
5876 5872 5869 5868 5867 5865 5862 5856 5854 5853 5854 5857 5858 5859 5861 5863 5865 5866 5867 5868 5869 5869 5869 5869 5868 5867 5866 5865 5864 5863 5862 5861 5859 5858 5856 5855 5853 5852 5850 5849 5848 5846 5846 5845 5845 5844 5844 5844 5844
5878 5874 5871 5869 5868 5866 5862 5858 5854 5851 5852 5854 5855 5856 5858 5859 5862 5863 5865 5866 5866 5867 5867 5867 5866 5865 5864 5863 5862 5860 5859 5858 5856 5855 5853 5851 5850 5848 5846 5845 5844 5842 5841 5840 5839 5839 5839 5838 5838
5876 5874 5871 5869 5866 5865 5862 5860 5855 5853 5852 5852 5852 5853 5855 5857 5859 5861 5863 5864 5864 5865 5864 5864 5863 5862 5862 5860 5859 5857 5856 5855 5853 5851 5850 5848 5846 5844 5842 5840 5839 5838 5836 5835 5834 5834 5833 5833 5832
5875 5873 5872 5869 5867 5864 5862 5860 5857 5855 5853 5852 5851 5853 5854 5855 5857 5859 5861 5862 5863 5862 5862 5862 5861 5860 5859 5857 5856 5855 5853 5851 5850 5848 5846 5844 5842 5840 5838 5836 5834 5833 5831 5830 5829 5828 5828 5827 5826
5874 5872 5870 5868 5866 5864 5862 5859 5858 5855 5853 5852 5852 5853 5855 5856 5857 5859 5860 5861 5861 5860 5860 5860 5859 5858 5856 5855 5853 5852 5850 5848 5846 5844 5842 5841 5838 5836 5834 5832 5830 5828 5826 5825 5824 5823 5822 5821 5820
5873 5871 5869 5867 5864 5862 5860 5859 5859 5856 5854 5854 5854 5854 5855 5856 5857 5858 5859 5859 5859 5859 5858 5858 5857 5855 5854 5852 5850 5849 5847 5845 5843 5841 5839 5837 5835 5833 5830 5828 5826 5824 5822 5820 5818 5817 5815 5814 5813
5872 5870 5868 5863 5860 5859 5859 5860 5858 5856 5855 5855 5855 5856 5857 5857 5857 5858 5858 5858 5857 5857 5856 5856 5854 5853 5851 5849 5848 5846 5844 5842 5840 5837 5835 5833 5831 5829 5827 5824 5822 5819 5817 5815 5813 5811 5809 5807 5806
5871 5870 5867 5862 5859 5859 5861 5861 5860 5858 5857 5856 5856 5856 5857 5856 5857 5857 5857 5856 5856 5855 5854 5853 5852 5850 5848 5847 5845 5843 5841 5839 5837 5834 5832 5829 5827 5825 5823 5820 5817 5815 5812 5809 5807 5805 5802 5800 5798
5870 5869 5868 5866 5864 5862 5861 5860 5861 5859 5859 5858 5858 5857 5856 5855 5856 5856 5855 5854 5854 5852 5851 5850 5849 5847 5846 5844 5842 5840 5838 5836 5834 5831 5829 5826 5823 5821 5818 5815 5812 5809 5806 5804 5801 5798 5795 5793 5790
5868 5868 5868 5867 5864 5860 5858 5860 5859 5859 5859 5858 5857 5856 5856 5855 5854 5854 5853 5852 5851 5850 5848 5847 5846 5844 5843 5841 5839 5837 5835 5832 5830 5828 5825 5822 5819 5816 5813 5810 5807 5804 5800 5797 5794 5791 5788 5785 5782
5867 5866 5866 5865 5864 5862 5860 5858 5857 5858 5857 5857 5856 5855 5854 5853 5852 5851 5850 5849 5848 5847 5846 5845 5844 5842 5840 5838 5836 5834 5832 5830 5827 5824 5821 5818 5815 5811 5808 5804 5801 5797 5794 5790 5786 5783 5779 5776 5773
5865 5865 5864 5864 5863 5862 5859 5857 5856 5856 5856 5855 5854 5853 5852 5851 5850 5849 5848 5847 5846 5845 5844 5843 5841 5839 5837 5835 5833 5831 5829 5827 5824 5821 5818 5814 5810 5806 5803 5799 5795 5791 5786 5782 5778 5774 5770 5767 5763
5861 5862 5862 5862 5861 5861 5860 5860 5855 5854 5854 5853 5852 5851 5850 5849 5848 5847 5846 5845 5844 5843 5841 5840 5838 5837 5835 5833 5831 5828 5826 5823 5820 5817 5813 5809 5805 5801 5797 5792 5788 5783 5779 5774 5769 5765 5760 5756 5753